マスター彗星

C/2016 N4 ( MASTER )

English version
Home page
Updated on February 13, 2018

---------------------------------------------------------------------

・ プロフィール

発見日 2016年7月15日
発見光度 16.8等
発見者 Mobile Astronomical System of the Telescope-Robots (MASTER)

・ 写真集

・ 軌道要素

Epoch 2017 Sept. 4.0 TT = JDT 2458000.5
T 2017 Sept. 16.59957 TT                                MPCW
q   3.1991001            (2000.0)            P               Q
z  +0.0001939      Peri.   55.95579     +0.58262450     -0.80666454
 +/-0.0000005      Node   354.03141     -0.14120889     +0.01973135
e   0.9993796      Incl.   72.55731     +0.80038037     +0.59068011
From 1483 observations 2016 July 15-2018 Jan. 18, mean residual 0".4.

・ 星図

・ 光度変化

        m1 = 7.0 + 5 logΔ + 10.0 log r(t + 200)

---------------------------------------------------------------------

軌道要素はM.P.E.C. 2018-B155に掲載されたものです。
星図はステラナビゲータ Ver.10 (アストロアーツ) で作成したものです。
光度グラフはComet for Windowsで作成したものです。

---------------------------------------------------------------------

Copyright(C) Seiichi Yoshida (comet@aerith.net). All rights reserved.